TimeCDT,TemperatureF,Dew PointF,Humidity,Sea Level PressureIn,VisibilityMPH,Wind Direction,Wind SpeedMPH,Gust SpeedMPH,PrecipitationIn,Events,Conditions,WindDirDegrees,DateUTC
12:53 AM,80.1,73.0,79,29.96,10.0,ESE,10.4,-,N/A,,Clear,110,2012-10-07 05:53:00
1:53 AM,80.1,73.0,79,29.95,10.0,ESE,8.1,-,N/A,,Clear,110,2012-10-07 06:53:00
2:53 AM,80.1,73.0,79,29.96,10.0,East,8.1,-,N/A,,Clear,100,2012-10-07 07:53:00
3:53 AM,79.0,73.0,82,29.95,10.0,East,6.9,-,N/A,,Clear,90,2012-10-07 08:53:00
4:53 AM,79.0,73.0,82,29.95,10.0,East,9.2,-,N/A,,Clear,90,2012-10-07 09:53:00
5:53 AM,78.1,72.0,81,29.96,10.0,ENE,4.6,-,N/A,,Partly Cloudy,70,2012-10-07 10:53:00
6:53 AM,75.9,71.1,85,29.98,10.0,North,10.4,-,N/A,,Mostly Cloudy,350,2012-10-07 11:53:00
7:53 AM,75.9,69.1,79,29.99,9.0,North,18.4,23.0,N/A,,Partly Cloudy,10,2012-10-07 12:53:00
8:53 AM,77.0,70.0,79,30.01,8.0,North,17.3,24.2,N/A,,Partly Cloudy,10,2012-10-07 13:53:00
9:53 AM,79.0,70.0,74,30.04,8.0,NNE,19.6,26.5,N/A,,Mostly Cloudy,30,2012-10-07 14:53:00
10:53 AM,81.0,71.1,72,30.04,7.0,NNE,21.9,31.1,N/A,,Partly Cloudy,20,2012-10-07 15:53:00
11:26 AM,82.4,71.6,70,30.05,8.0,NNE,20.7,28.8,N/A,,Mostly Cloudy,30,2012-10-07 16:26:00
11:53 AM,82.9,71.1,67,30.05,8.0,NE,20.7,28.8,N/A,,Mostly Cloudy,40,2012-10-07 16:53:00
12:53 PM,84.0,71.1,65,30.04,8.0,NE,18.4,26.5,N/A,,Mostly Cloudy,40,2012-10-07 17:53:00
1:53 PM,79.0,70.0,74,30.02,9.0,NE,17.3,25.3,0.00,Rain,Light Rain,50,2012-10-07 18:53:00
2:53 PM,77.0,71.1,82,30.01,10.0,North,12.7,17.3,0.00,,Overcast,360,2012-10-07 19:53:00
3:18 PM,75.2,69.8,83,30.01,10.0,North,10.4,-,N/A,,Overcast,350,2012-10-07 20:18:00
3:31 PM,75.2,71.6,89,30.01,2.5,NNE,13.8,-,0.02,Rain,Rain,30,2012-10-07 20:31:00
3:36 PM,73.4,71.6,94,30.01,1.2,NE,10.4,-,0.05,Rain,Heavy Rain,40,2012-10-07 20:36:00
3:43 PM,73.4,69.8,88,30.01,2.0,North,5.8,-,0.06,Rain,Rain,10,2012-10-07 20:43:00
3:53 PM,73.0,71.1,93,30.01,4.0,NNW,11.5,-,0.06,Rain,Light Rain,340,2012-10-07 20:53:00
4:05 PM,73.4,69.8,88,30.00,4.0,WNW,10.4,-,0.01,Rain,Light Rain,300,2012-10-07 21:05:00
4:09 PM,71.6,69.8,94,30.00,1.5,WNW,9.2,-,0.08,Rain,Rain,290,2012-10-07 21:09:00
4:17 PM,71.6,69.8,94,30.01,0.5,NW,11.5,18.4,0.33,Fog-Rain,Heavy Rain,310,2012-10-07 21:17:00
4:24 PM,69.8,68.0,94,30.00,0.5,NW,17.3,-,0.57,Fog-Rain,Heavy Rain,320,2012-10-07 21:24:00
4:38 PM,69.8,68.0,94,30.00,0.8,WNW,15.0,-,0.82,Rain,Heavy Rain,300,2012-10-07 21:38:00
4:41 PM,69.8,68.0,94,30.00,1.0,NW,15.0,-,0.83,Rain,Rain,310,2012-10-07 21:41:00
4:51 PM,69.8,68.0,94,30.00,2.0,NW,18.4,-,0.84,Rain,Rain,310,2012-10-07 21:51:00
4:53 PM,70.0,68.0,93,30.00,2.5,NW,17.3,-,0.84,Rain,Rain,310,2012-10-07 21:53:00
5:06 PM,69.8,66.2,88,30.00,4.0,NW,13.8,-,0.00,Rain,Light Rain,310,2012-10-07 22:06:00
5:28 PM,68.0,66.2,94,30.01,2.0,NW,13.8,-,0.03,Rain,Heavy Rain,310,2012-10-07 22:28:00
5:39 PM,68.0,66.2,94,30.01,1.2,WNW,11.5,-,0.11,Rain,Heavy Rain,290,2012-10-07 22:39:00
5:49 PM,68.0,66.2,94,30.01,0.5,WNW,9.2,-,0.22,Fog-Rain,Heavy Rain,300,2012-10-07 22:49:00
5:53 PM,68.0,66.0,93,30.01,0.5,WNW,10.4,-,0.28,Fog-Rain,Heavy Rain,290,2012-10-07 22:53:00
6:19 PM,68.0,66.2,94,30.02,1.2,West,8.1,-,0.18,Rain,Heavy Rain,280,2012-10-07 23:19:00
6:29 PM,66.2,66.2,100,30.01,0.5,WNW,11.5,-,0.35,Fog-Rain,Heavy Rain,300,2012-10-07 23:29:00
6:48 PM,68.0,66.2,94,30.02,2.0,West,5.8,-,0.45,Rain,Rain,280,2012-10-07 23:48:00
6:53 PM,68.0,66.0,93,30.02,2.5,WNW,8.1,-,0.47,Rain,Heavy Rain,290,2012-10-07 23:53:00
7:11 PM,68.0,66.2,94,30.03,3.0,WSW,5.8,-,0.05,Rain,Rain,240,2012-10-08 00:11:00
7:23 PM,68.0,66.2,94,30.02,1.8,WNW,12.7,-,0.12,Rain,Heavy Rain,300,2012-10-08 00:23:00
7:32 PM,68.0,66.2,94,30.02,2.0,WNW,9.2,-,0.15,Rain,Rain,290,2012-10-08 00:32:00
7:41 PM,68.0,66.2,94,30.03,1.8,NW,10.4,-,0.22,Rain,Heavy Rain,310,2012-10-08 00:41:00
7:53 PM,68.0,64.9,90,30.03,3.0,WNW,9.2,18.4,0.27,Rain,Light Rain,290,2012-10-08 00:53:00
8:53 PM,68.0,66.0,93,30.05,7.0,WNW,8.1,-,0.01,Rain,Light Rain,300,2012-10-08 01:53:00
9:24 PM,69.8,66.2,88,30.05,7.0,NW,9.2,28.8,0.00,,Overcast,310,2012-10-08 02:24:00
9:53 PM,69.1,66.0,90,30.06,8.0,NNW,15.0,-,0.01,,Overcast,330,2012-10-08 02:53:00
10:53 PM,66.9,64.0,90,30.07,8.0,NNW,16.1,-,N/A,,Overcast,340,2012-10-08 03:53:00
11:53 PM,66.9,64.0,90,30.07,8.0,NNW,12.7,-,0.00,,Overcast,340,2012-10-08 04:53:00